Regional Weather Roundup
Issued by NWS Columbia, SC

Home | Current Version | Previous Version | Text Only | Print | Product List | Glossary On
Versions: 1 2 3 4 5 6 7 8 9 10 11 12 13 14 15 16 17 18 19 20 21 22 23 24 25 26 27 28
000
ASUS42 KCAE 241010
RWRCAE
REGIONAL WEATHER ROUNDUP
NATIONAL WEATHER SERVICE COLUMBIA SC
600 AM EDT FRI OCT 24 2014

NOTE: "FAIR" INDICATES FEW OR NO CLOUDS BELOW 12,000 FEET WITH NO
SIGNIFICANT WEATHER AND/OR OBSTRUCTIONS TO VISIBILITY.

NOT ALL STATIONS ARE QUALITY CONTROLLED BY THE NATIONAL
WEATHER SERVICE. USE DATA WITH CAUTION...ESPECIALLY
DEWPOINT OBSERVATIONS.

SCZ001>056-GAZ040-063>065-077-241100-
...UPSTATE SOUTH CAROLINA...

CITY           SKY/WX    TMP DP  RH WIND       PRES   REMARKS
ANDERSON       PTCLDY    45  43  93 CALM      30.05R
LIBERTY        FAIR      39  37  93 MISG      30.04S
SPARTANBURG    FAIR      46  46 100 CALM      30.05R
CLEMSON        PTCLDY    50  46  86 CALM      30.06R
GREENVILLE     FAIR      50  39  66 CALM      30.05R
GREENWOOD      MOCLDY    44  41  89 CALM      30.06R
GREER          PTCLDY    47  41  80 N3        30.03R
ROCK HILL      CLOUDY    44  43  96 CALM      30.04R
LAURENS        FAIR      43  43 100 NE5       30.06R


...CENTRAL SOUTH CAROLINA...

CITY           SKY/WX    TMP DP  RH WIND       PRES   REMARKS
COLUMBIA APT   MOCLDY    47  43  86 W6        30.04R
COLUMBIA OWENS MOCLDY    49  45  86 CALM      30.05R
DARLINGTON     CLOUDY    48  41  76 NW5       30.04S
FLORENCE       CLOUDY    50  43  77 N7        30.02S
MCENTIRE ANGB  MOCLDY    51  42  69 NE5       30.03R
ORANGEBURG     MOCLDY    47  44  90 CALM      30.02S
SUMTER SHAW    MOCLDY    49  44  83 N5        30.01S
NEWBERRY       FAIR      45 N/A N/A CALM      30.07R
AIKEN          FAIR      50  45  81 NE3       30.06S
BARNWELL       FAIR      43  41  93 CALM      30.04R
MANNING        FAIR      46 N/A N/A CALM      30.02F
CAMDEN         FAIR      46  41  81 CALM      30.04S
WINNSBORO      FAIR      50  43  76 NE6       30.03S


...EASTERN AND COASTAL SOUTH CAROLINA...

CITY           SKY/WX    TMP DP  RH WIND       PRES   REMARKS
MYRTLE BEACH   CLEAR     52  43  71 NW6       30.02R
N MYRTLE BCH   MOCLDY    50  44  80 N7        30.00S
CONWAY         FAIR      45  45 100 CALM      30.02S
HARTSVILLE     FAIR      52  32  46 N7        30.02F
FLORENCE       CLOUDY    50  43  77 N7        30.02S
DARLINGTON     CLOUDY    48  41  76 NW5       30.04S
CHARLESTON APT MOCLDY    50  45  83 CALM      30.02S
MOUNT PLEASANT FAIR      48  48 100 CALM      30.02R
WALTERBORO     MOSUNNY   45 N/A N/A CALM      30.02S
BEAUFORT       PTCLDY    49  46  90 CALM      30.02R


...EASTERN GEORGIA...

CITY           SKY/WX    TMP DP  RH WIND       PRES   REMARKS
AUGUSTA BUSH F MOCLDY    44  43  96 CALM      30.04R
AUGUSTA DANIEL MOCLDY    54  45  71 NW5       30.04R
THOMSON        MOCLDY    47  47 100 CALM      30.08S
WASHINGTON     FAIR      50  50 100 NE3       30.04R
CLAXTON        FAIR      45  45 100 CALM      30.04R
SYLVANIA       PTSUNNY   49  48  97 CALM      30.04R
SAVANNAH       MOCLDY    51  46  83 CALM      30.04R


...SOUTHERN NORTH CAROLINA...

CITY           SKY/WX    TMP DP  RH WIND       PRES   REMARKS
CHARLOTTE      MOCLDY    43  40  89 CALM      30.05R
MONROE         CLOUDY    48  40  73 N3        30.03S
WADESBORO      CLOUDY    42  40  93 CALM      30.04S
ROCKINGHAM     CLOUDY    46  43  87 CALM      30.03S
RUTHERFORDTON  MOCLDY    43  40  90 W8        30.07R
ASHEVILLE      MOCLDY    43  38  82 CALM      30.09R

$$



USA.gov is the U.S. government's official web portal to all federal, state and local government web resources and services.